Wind_Speed
14 14 14 14 14 14 14 14 14 13 14 14 14 14 14 14 13 13 13 13 13 13 13 14 14 14 15 16 16 16 16 17 18 19 20 21 22 22
16 15 15 15 15 15 15 15 14 15 15 14 14 15 14 13 13 13 13 13 14 14 14 14 15 16 16 16 16 16 17 18 19 19 20 21 21 22
17 16 16 16 15 15 15 15 15 16 16 15 15 14 14 14 14 14 14 14 14 14 15 15 15 16 16 17 17 18 18 19 19 20 21 21 21 22
18 17 17 16 16 16 15 16 16 16 16 16 15 15 14 14 14 15 15 15 15 15 16 16 17 17 17 18 18 18 19 19 20 20 21 22 22 22
18 18 17 17 17 17 16 16 16 16 16 16 16 16 16 15 15 15 16 16 16 16 17 17 18 18 19 19 19 19 19 19 20 21 21 22 22 23
18 17 17 17 17 17 17 17 17 16 16 16 17 17 17 17 17 17 17 17 17 18 18 18 18 18 19 19 20 20 20 21 21 21 21 22 22 23
18 18 17 17 17 17 17 17 17 17 17 17 17 17 18 18 18 18 18 18 18 18 18 18 19 19 19 20 20 21 21 21 22 22 22 22 23 23
18 18 18 18 17 17 17 17 18 18 18 18 19 19 19 20 20 20 20 20 20 19 19 19 19 20 20 21 21 22 22 22 23 23 23 23 24 24
19 19 19 18 19 19 19 19 19 19 20 20 20 21 21 21 21 20 21 21 21 21 21 22 22 21 21 21 22 23 23 23 24 24 24 24 25 25
19 19 19 19 20 20 20 20 20 20 20 20 20 20 21 21 21 21 21 21 22 22 22 23 23 23 23 23 24 24 24 25 25 25 26 26 26 27
20 20 19 20 21 21 21 21 21 20 20 20 20 21 21 22 22 23 22 22 23 24 24 24 24 24 24 24 25 25 25 25 26 26 27 27 28 28
22 22 22 23 23 22 22 22 22 22 22 22 22 22 22 22 23 23 23 24 25 25 25 25 25 25 25 25 25 26 26 26 27 27 28 29 30 30
24 24 24 24 24 24 24 24 23 23 23 23 22 21 22 23 24 24 24 25 25 26 26 26 26 26 26 26 26 27 27 28 28 29 30 30 31 32
25 25 25 25 25 25 25 25 25 24 24 24 24 23 23 24 25 25 26 26 27 27 28 28 28 28 27 27 27 28 28 28 29 30 31 32 33 33
25 26 26 25 25 26 26 26 26 26 26 26 26 25 25 26 27 27 27 27 28 27 28 28 29 29 28 28 28 28 29 29 29 31 32 33 33 34
26 26 27 27 27 27 27 27 27 27 27 27 28 27 27 27 27 27 28 28 28 29 29 29 29 29 29 29 29 30 30 30 31 32 33 33 34 35
27 28 28 28 28 28 28 28 29 29 29 29 29 29 29 28 28 28 29 29 30 30 30 30 30 29 29 29 30 30 31 32 32 33 34 34 35 35
29 28 28 28 28 28 28 29 29 30 30 30 30 30 30 29 29 30 30 30 30 31 31 30 30 30 30 30 31 32 33 33 34 35 35 36 36 36
30 29 28 28 28 29 29 30 30 30 30 30 30 30 30 30 30 30 31 31 32 32 32 32 32 32 31 31 32 33 34 35 35 36 36 37 37 37
30 30 29 29 29 29 30 30 30 30 31 31 31 31 31 31 31 31 32 33 33 32 32 32 33 33 33 33 34 35 37 37 37 37 37 37 37 38
30 30 30 30 30 30 30 30 30 31 31 32 32 32 32 31 32 32 33 33 33 33 33 33 34 35 35 35 35 36 37 38 38 38 38 38 38 39
30 30 30 30 31 31 31 31 31 31 31 31 32 33 33 32 33 33 34 34 33 33 34 34 35 36 36 36 36 37 38 39 38 38 39 40 40 40
30 30 31 31 31 31 31 31 31 31 31 32 32 33 33 33 33 33 34 34 34 34 34 35 36 36 37 38 38 38 38 38 38 38 39 40 41 42
Wind_Direction
283 282 283 283 279 278 277 276 275 276 276 274 274 276 278 277 274 275 276 277 275 276 277 278 279 280 282 282 282 284 286 287 289 291 291 291 291 292
283 282 282 281 278 278 277 275 276 277 278 274 273 272 273 274 274 276 278 278 278 280 280 281 281 282 283 283 284 285 288 290 291 293 294 294 294 294
282 282 283 280 280 279 278 275 275 275 276 274 272 271 270 272 273 275 277 279 279 281 282 284 284 283 283 284 285 286 288 290 293 295 296 296 296 295
280 281 282 280 278 279 278 275 274 273 274 274 272 270 271 272 273 275 277 279 281 281 282 283 284 284 283 285 286 287 290 291 294 295 297 297 298 297
279 279 279 279 278 277 276 274 273 273 273 274 272 270 270 271 273 274 276 278 280 281 281 283 284 285 285 286 287 288 291 293 294 295 297 298 298 300
278 277 278 278 277 276 275 273 272 271 272 273 271 270 270 271 272 273 274 276 279 281 282 283 283 285 286 287 288 290 292 294 295 296 298 299 299 300
275 275 277 277 276 274 273 273 272 272 273 274 273 270 270 272 272 272 275 276 278 280 282 283 283 284 286 287 290 291 292 293 294 296 298 300 301 300
275 275 277 274 273 272 272 274 274 272 272 274 274 272 270 270 272 273 275 275 277 279 280 282 284 283 286 288 288 289 291 293 294 295 297 298 300 300
275 273 273 273 271 271 271 273 275 275 273 275 274 274 272 271 272 274 274 275 278 280 280 282 285 286 288 287 288 289 291 292 292 293 295 296 298 300
275 275 274 274 272 272 273 273 274 276 275 276 275 275 273 272 272 273 275 276 277 279 281 282 285 286 288 288 289 290 292 294 294 293 294 296 298 300
276 275 274 274 275 274 274 274 274 274 275 276 276 275 274 273 274 275 275 277 277 278 280 282 284 286 288 289 289 291 292 294 294 294 294 296 297 299
276 274 273 273 274 274 274 274 273 274 275 276 276 275 274 273 275 277 278 278 278 278 279 282 284 286 287 288 288 290 292 292 293 295 296 296 297 299
274 273 273 272 272 272 272 272 273 273 275 276 276 275 274 274 274 276 277 279 280 279 280 282 284 286 287 287 287 289 290 290 292 294 296 297 298 298
274 273 273 273 271 270 270 271 271 272 274 274 275 276 275 274 275 276 277 278 281 282 282 282 283 285 286 286 287 288 288 289 291 294 296 297 298 298
274 273 273 273 272 271 271 272 272 272 272 273 274 276 276 276 277 278 279 280 282 284 284 283 284 284 285 285 285 286 288 289 291 293 295 297 298 299
273 272 273 274 273 272 272 272 273 273 272 273 275 275 277 277 279 281 282 282 282 283 284 284 284 284 285 285 285 286 289 290 291 293 295 297 298 299
274 274 274 273 273 273 272 272 273 273 273 273 274 275 276 278 279 281 282 281 281 283 283 283 283 284 284 286 286 287 289 291 292 294 295 297 299 300
276 276 275 274 274 274 273 273 274 274 273 273 274 276 277 278 279 279 280 281 281 281 281 282 282 282 283 284 287 288 290 290 292 293 295 296 298 300
275 275 275 275 275 275 275 274 274 274 273 273 275 276 278 278 279 279 280 282 282 280 279 280 281 282 283 284 286 288 290 291 291 292 294 296 297 299
273 274 274 275 276 277 276 275 275 274 274 273 274 276 277 278 279 280 281 283 282 281 279 280 281 283 284 285 287 289 290 291 292 293 294 296 297 298
273 273 273 273 274 276 277 276 276 275 275 275 274 275 277 279 279 280 282 283 282 281 281 281 281 282 283 285 287 290 290 291 291 293 294 295 297 298
271 272 272 273 274 275 275 275 276 277 277 276 275 276 277 279 280 280 282 282 281 281 281 281 281 282 284 286 288 290 291 292 292 293 294 295 297 298
271 271 272 273 274 275 275 276 276 276 277 277 277 277 278 279 280 281 282 281 280 281 282 282 282 282 283 285 288 289 290 291 292 293 294 295 297 298
Height
5823 5822 5822 5821 5821 5821 5820 5820 5820 5820 5819 5819 5819 5818 5818 5818 5817 5817 5817 5817 5816 5816 5816 5815 5815 5815 5814 5814 5813 5812 5812 5811 5810 5808 5807 5805 5804 5802
5819 5818 5818 5817 5817 5816 5816 5816 5816 5816 5815 5815 5815 5815 5814 5814 5814 5814 5814 5813 5813 5812 5812 5811 5811 5811 5810 5809 5809 5808 5807 5806 5805 5803 5801 5799 5797 5795
5814 5814 5813 5813 5812 5812 5811 5811 5811 5811 5811 5811 5811 5810 5810 5810 5810 5810 5810 5809 5809 5808 5808 5807 5807 5806 5806 5805 5804 5803 5802 5801 5799 5798 5796 5794 5791 5789
5809 5809 5808 5808 5808 5807 5807 5807 5807 5806 5806 5806 5806 5806 5806 5806 5806 5806 5805 5805 5805 5804 5804 5803 5803 5802 5801 5800 5799 5798 5797 5795 5794 5792 5790 5788 5785 5783
5804 5804 5803 5803 5803 5802 5802 5802 5802 5802 5801 5801 5801 5802 5801 5801 5801 5801 5801 5801 5800 5800 5799 5798 5798 5797 5796 5795 5794 5793 5791 5790 5788 5786 5784 5782 5779 5777
5799 5798 5798 5797 5797 5797 5797 5797 5796 5796 5796 5796 5796 5796 5797 5796 5797 5796 5796 5796 5795 5795 5794 5793 5793 5792 5791 5789 5788 5787 5786 5784 5782 5780 5778 5776 5773 5771
5793 5793 5792 5792 5792 5792 5792 5791 5791 5791 5791 5791 5791 5791 5791 5791 5791 5791 5791 5791 5790 5789 5789 5788 5787 5786 5785 5784 5783 5781 5780 5778 5776 5774 5772 5770 5767 5764
5788 5788 5787 5787 5787 5786 5786 5786 5786 5786 5786 5786 5785 5785 5785 5785 5785 5785 5785 5785 5785 5785 5783 5782 5781 5780 5779 5778 5777 5775 5774 5772 5770 5768 5766 5763 5761 5758
5782 5782 5782 5781 5781 5781 5781 5780 5780 5780 5780 5780 5780 5779 5779 5779 5779 5779 5779 5778 5778 5778 5777 5776 5775 5774 5773 5772 5770 5769 5767 5765 5763 5761 5759 5757 5754 5752
5777 5776 5776 5776 5775 5775 5775 5774 5774 5774 5773 5773 5773 5773 5772 5772 5772 5772 5772 5772 5772 5771 5770 5770 5768 5767 5766 5765 5763 5762 5760 5758 5756 5754 5752 5750 5747 5745
5771 5770 5770 5769 5769 5769 5769 5768 5768 5767 5767 5766 5766 5766 5766 5765 5765 5765 5765 5765 5765 5764 5763 5762 5761 5760 5759 5758 5756 5754 5753 5751 5749 5747 5744 5742 5740 5737
5764 5764 5764 5763 5763 5762 5762 5761 5761 5761 5760 5760 5759 5759 5758 5758 5757 5757 5757 5757 5756 5756 5755 5754 5753 5752 5751 5750 5748 5747 5745 5743 5741 5739 5737 5734 5732 5729
5757 5757 5757 5756 5756 5755 5755 5754 5754 5753 5753 5752 5752 5751 5751 5750 5750 5749 5749 5749 5748 5748 5747 5746 5745 5744 5743 5742 5740 5739 5737 5735 5733 5731 5729 5726 5724 5721
5750 5749 5749 5748 5748 5747 5747 5747 5746 5746 5745 5745 5745 5744 5744 5743 5742 5742 5741 5740 5740 5739 5738 5737 5736 5736 5734 5733 5732 5730 5728 5727 5725 5723 5720 5717 5714 5711
5742 5741 5741 5740 5740 5740 5739 5739 5738 5738 5738 5737 5737 5736 5735 5735 5734 5733 5732 5731 5731 5730 5729 5728 5727 5726 5725 5725 5723 5722 5720 5718 5716 5714 5711 5708 5705 5702
5734 5733 5733 5732 5731 5731 5731 5730 5730 5729 5729 5729 5728 5728 5727 5726 5726 5725 5724 5723 5722 5721 5720 5719 5718 5717 5716 5715 5714 5712 5710 5709 5707 5705 5702 5699 5696 5692
5725 5724 5724 5723 5723 5722 5722 5721 5721 5720 5720 5720 5719 5719 5718 5717 5717 5716 5715 5714 5713 5712 5711 5709 5708 5707 5706 5705 5704 5703 5701 5699 5697 5694 5692 5689 5686 5682
5716 5716 5715 5714 5714 5713 5713 5712 5712 5711 5711 5710 5710 5709 5709 5708 5708 5707 5706 5705 5703 5702 5701 5700 5699 5698 5697 5696 5695 5693 5691 5689 5686 5684 5681 5679 5676 5672
5707 5707 5706 5706 5705 5704 5703 5703 5702 5702 5701 5701 5701 5700 5700 5699 5698 5697 5696 5695 5694 5692 5691 5690 5689 5688 5687 5687 5685 5682 5680 5678 5676 5673 5671 5668 5665 5661
5698 5698 5697 5696 5696 5695 5694 5693 5692 5692 5691 5691 5691 5690 5690 5689 5688 5687 5686 5685 5683 5682 5681 5680 5679 5678 5677 5676 5675 5672 5669 5667 5664 5662 5659 5656 5653 5650
5688 5688 5687 5687 5686 5685 5684 5683 5683 5682 5682 5681 5681 5681 5680 5679 5678 5677 5676 5674 5673 5672 5671 5670 5668 5667 5666 5664 5663 5661 5658 5655 5652 5650 5647 5645 5642 5639
5679 5678 5678 5677 5676 5676 5675 5674 5673 5673 5672 5671 5671 5670 5670 5669 5668 5666 5665 5664 5662 5661 5660 5659 5657 5656 5654 5653 5651 5649 5647 5644 5641 5638 5635 5632 5629 5626
5669 5668 5668 5667 5667 5666 5665 5664 5664 5663 5662 5661 5661 5660 5659 5658 5657 5656 5654 5653 5652 5651 5649 5648 5646 5644 5643 5641 5639 5637 5635 5632 5629 5627 5624 5620 5616 5613